Wind_Speed
52 44 44 42 37 34 31 30 28 27 26 24 23 23 22 21 22 26 28 29 26 29 26 20 18 24 22 20 21 21 23 25 26 32 36 39 40 40 42 42 39 39 38 40 42 49 55 56 58 58 63 59 61 64
48 43 43 40 36 34 32 31 31 30 30 29 28 28 27 28 27 27 30 30 29 34 33 23 21 22 22 21 21 20 20 24 30 35 34 36 39 40 39 38 36 38 39 40 44 49 54 55 56 57 61 58 57 63
46 42 41 38 35 34 33 33 33 33 32 32 32 32 33 31 29 30 29 28 32 39 32 31 24 18 23 24 22 19 22 26 28 31 34 36 36 36 37 37 37 37 38 42 43 45 51 57 57 60 57 56 52 59
43 40 38 36 34 33 32 33 35 35 34 35 35 37 37 36 35 34 34 33 35 35 33 32 24 28 24 27 23 21 25 27 30 31 32 33 34 34 34 35 35 36 39 41 40 40 42 50 56 58 60 58 56 53
40 37 36 33 32 34 34 33 33 34 36 39 40 41 40 39 38 38 36 35 34 35 34 32 30 30 31 26 27 23 26 27 32 34 35 35 35 34 35 34 36 36 37 39 38 39 42 43 47 49 51 54 56 57
35 34 31 31 34 31 31 32 32 33 33 35 36 35 36 34 33 32 29 31 36 35 36 32 31 35 33 29 29 28 26 26 27 31 34 35 37 37 35 35 38 37 40 40 35 38 35 40 41 42 43 44 49 51
31 29 29 31 28 29 27 25 27 28 28 31 31 31 33 31 28 28 35 36 34 33 36 32 35 36 33 29 29 29 27 27 29 31 33 35 36 37 37 38 39 40 42 40 38 37 37 39 40 39 39 40 44 47
26 27 25 25 25 22 20 19 19 20 21 25 27 28 29 28 28 29 34 31 32 34 34 32 35 34 32 33 30 29 29 29 30 31 33 35 35 34 34 39 41 43 42 40 37 37 39 38 38 38 38 41 43 46
24 21 18 19 18 16 14 12 12 14 16 18 21 23 24 26 28 31 32 31 30 30 30 32 35 34 34 34 30 29 29 31 33 34 35 33 32 34 39 40 39 40 41 41 39 40 40 41 39 40 39 41 43 45
18 14 12 13 11 10 8 7 8 9 12 15 17 19 22 24 25 26 26 26 27 28 28 31 34 34 35 32 29 29 30 30 32 31 32 31 31 34 37 39 41 41 42 42 41 41 41 42 40 42 42 41 43 46
10 7 7 7 6 6 6 5 5 7 10 13 15 16 18 19 19 19 20 25 25 26 27 30 30 28 31 29 27 27 28 30 32 32 31 29 30 33 36 37 37 37 37 38 38 40 39 40 40 40 41 41 43 45
6 4 5 4 3 3 4 6 7 7 7 11 17 19 21 22 23 25 25 24 23 23 26 27 28 29 32 27 23 25 26 25 25 24 23 27 32 33 34 34 35 33 36 37 38 39 40 42 43 44 45 46 47 49
5 5 7 6 6 6 5 7 8 11 11 10 11 13 16 17 19 20 20 21 21 20 22 25 29 33 32 26 25 25 24 21 18 17 24 31 34 31 27 29 28 27 30 32 33 35 38 40 41 43 44 45 46 48
8 9 10 10 11 10 9 10 10 12 12 12 13 13 14 14 15 14 13 14 15 17 19 24 29 33 33 29 26 24 22 19 18 20 26 26 22 20 20 22 23 25 27 31 33 35 36 38 39 40 42 43 44 45
13 14 14 15 15 15 14 14 15 15 15 15 15 14 14 13 13 12 12 14 15 16 18 21 27 32 31 28 25 25 24 23 26 30 26 21 21 20 21 22 25 26 28 31 34 36 37 39 41 42 43 43 45 47
19 20 20 20 20 20 20 20 19 18 18 17 16 17 18 18 17 17 17 17 16 16 16 18 21 25 29 30 31 30 30 31 30 26 23 26 29 29 29 30 32 33 35 38 40 41 42 43 44 44 45 44 43 43
22 23 24 24 24 24 25 25 24 23 23 23 22 20 20 20 20 18 17 17 16 17 18 19 20 20 22 23 26 28 30 28 30 31 31 33 34 35 36 38 41 42 43 43 44 46 48 48 47 47 48 51 53 54
26 27 27 27 28 29 29 27 27 27 27 27 27 27 26 25 25 23 22 20 19 16 17 16 15 15 15 15 16 16 17 19 24 28 30 32 35 39 41 43 43 43 45 47 48 49 51 53 54 55 55 55 55 52
30 30 30 31 33 34 34 35 34 33 33 32 33 33 33 32 32 30 27 25 23 21 20 17 15 12 10 9 10 9 9 10 14 19 24 27 32 35 40 43 47 49 50 50 51 51 51 50 50 49 49 49 50 51
32 35 36 37 37 38 39 38 37 36 37 37 37 36 35 33 32 29 27 25 24 21 19 16 13 10 7 5 5 6 8 12 14 17 20 23 26 28 32 35 37 39 41 43 45 46 48 49 50 50 51 51 52 53
35 39 40 40 39 39 39 39 39 39 38 36 34 32 30 28 26 25 23 22 19 16 14 13 11 10 8 7 7 9 12 15 17 20 23 25 29 31 35 37 39 41 43 45 46 47 49 50 51 51 52 52 53 53
37 39 39 39 42 40 40 39 36 34 33 30 29 27 25 23 20 18 18 16 14 13 12 10 11 12 14 15 17 19 22 24 27 30 33 36 38 40 42 44 45 46 47 48 48 49 49 50 50 50 50 50 50 50
38 39 41 42 41 38 35 32 30 27 26 24 22 19 17 17 16 15 13 13 14 16 17 17 19 22 24 26 28 29 30 30 32 34 37 39 42 44 46 48 49 49 49 47 46 44 44 44 43 44 44 44 44 44
42 42 39 37 35 32 29 26 24 23 20 17 16 14 14 14 11 11 13 16 18 20 23 26 29 33 35 35 35 33 32 31 31 32 35 37 41 43 45 46 47 46 46 46 44 43 42 41 40 40 39 39 39 39
38 36 33 31 28 25 22 19 17 16 15 13 11 10 10 11 13 15 18 22 26 30 33 36 39 42 44 43 42 40 37 34 31 32 33 36 38 39 41 42 42 43 42 41 40 40 39 39 38 37 37 36 36 37
31 29 26 24 21 18 16 14 12 10 9 8 7 9 13 16 19 22 25 28 32 37 41 45 48 51 50 48 44 41 37 34 33 33 34 36 37 37 37 35 36 36 36 36 36 37 37 37 37 37 37 37 37 38
23 21 19 16 13 11 10 8 6 5 6 9 13 17 20 23 25 28 32 36 40 43 46 49 51 51 51 48 44 39 35 34 34 34 34 34 34 34 34 34 32 32 33 34 34 34 35 35 36 37 38 38 38 38
15 13 12 10 8 7 6 6 6 9 12 16 19 22 25 27 30 34 37 40 44 48 50 53 53 53 51 46 41 36 34 32 32 32 33 33 32 32 32 32 32 32 32 32 33 33 33 34 35 36 36 37 37 37
10 9 7 6 5 6 6 8 10 13 16 20 22 25 28 31 34 38 41 46 48 51 54 56 54 51 48 44 40 36 34 32 32 31 30 29 30 30 30 30 30 31 31 31 32 33 33 34 35 36 36 36 37 37
5 4 3 4 5 7 9 12 15 18 21 23 26 29 32 36 39 42 46 49 52 55 55 54 52 49 47 43 39 36 33 32 31 29 29 29 28 28 29 29 30 31 32 33 33 33 34 34 35 35 35 35 34 34
1 2 5 8 11 13 16 18 20 22 24 27 31 34 37 40 43 46 50 52 53 53 52 50 48 46 44 42 37 34 33 32 30 30 29 29 29 29 30 30 31 31 31 31 32 32 32 32 32 32 32 32 31 31
8 10 12 15 18 22 24 25 26 28 29 33 36 38 41 44 47 50 50 51 52 50 48 46 45 43 41 39 36 35 34 33 31 30 29 29 29 30 31 31 31 31 30 30 30 30 30 30 29 29 28 28 28 27
14 16 17 20 25 28 30 30 31 33 35 38 40 43 45 47 49 52 51 49 48 46 44 43 43 41 39 37 36 35 34 32 32 31 30 30 31 31 31 31 31 30 30 30 30 29 28 27 26 26 26 26 26 26
Wind_Direction
280 282 278 279 277 271 267 264 260 257 255 252 248 246 247 241 229 231 239 245 247 250 248 236 232 242 244 238 236 231 220 212 203 203 202 198 202 209 213 218 219 220 221 224 225 224 225 225 227 229 232 226 226 226
277 277 274 276 273 266 262 260 257 254 251 250 249 247 245 242 238 234 230 233 240 247 250 243 233 240 239 236 231 225 221 204 202 203 199 198 202 207 212 215 216 219 223 226 226 225 227 230 232 234 237 237 229 230
273 271 270 273 267 264 260 258 259 256 254 252 251 251 250 248 246 243 241 233 232 239 248 247 235 242 243 234 230 212 206 202 208 203 199 202 203 204 209 211 214 217 223 229 229 227 227 231 233 238 241 243 244 239
267 266 269 267 265 263 262 259 256 254 254 256 256 254 253 251 249 247 245 241 237 239 243 246 240 231 237 234 228 212 207 199 196 201 201 202 205 206 208 210 214 215 222 229 232 233 233 234 235 236 240 243 245 245
262 263 266 265 263 260 262 262 259 260 260 260 258 256 254 252 249 247 243 242 242 240 240 239 236 229 229 231 228 213 210 209 203 196 201 202 204 206 209 209 214 215 223 226 227 229 229 233 238 240 241 243 244 245
257 262 264 261 263 266 266 269 267 262 255 251 249 247 248 245 243 241 240 237 235 232 230 229 226 226 226 226 223 213 211 206 204 206 207 206 207 208 208 208 214 219 225 230 229 232 228 232 234 238 241 242 243 243
256 259 257 263 268 271 270 266 261 257 253 247 243 239 238 237 233 227 227 228 227 226 224 219 220 223 224 223 223 212 205 206 209 208 210 213 216 215 214 212 216 219 227 231 230 233 230 233 237 235 235 236 240 242
252 253 260 269 272 272 274 267 257 246 235 232 230 227 227 224 221 221 226 226 223 219 218 210 216 216 216 214 217 214 206 204 207 210 212 215 216 219 219 221 222 223 228 233 236 238 238 237 240 241 243 242 241 243
246 256 265 269 276 280 274 265 253 241 234 224 220 219 216 214 212 214 219 218 219 217 216 207 212 210 214 213 216 212 206 206 208 209 215 218 218 217 220 220 221 225 230 232 232 235 240 242 242 244 242 240 240 240
249 256 264 277 284 282 276 262 238 224 211 207 206 210 210 209 208 212 214 209 214 214 211 206 210 208 209 207 208 208 205 206 212 215 217 219 221 220 222 223 224 225 230 234 236 239 241 244 243 244 244 242 242 242
239 248 267 270 270 274 253 221 203 200 200 196 191 192 196 195 196 197 194 198 204 205 204 205 205 202 201 205 206 204 204 207 211 214 217 220 224 226 227 229 231 233 236 239 241 242 243 244 245 245 246 246 246 246
223 218 222 232 220 212 205 175 158 157 181 192 188 181 181 179 183 188 193 195 197 195 198 197 195 190 198 200 198 198 199 202 208 215 219 222 225 228 232 236 238 239 240 241 243 245 246 246 247 248 249 249 249 251
191 184 200 189 170 154 148 144 146 147 150 165 196 195 186 183 183 185 188 188 190 188 191 186 185 188 192 186 189 192 192 196 201 200 209 220 226 228 233 240 245 247 250 253 254 254 254 255 256 257 258 259 258 259
154 156 154 149 140 134 127 128 130 135 137 143 155 163 164 168 167 170 168 168 173 171 176 180 183 187 191 191 192 194 190 194 199 210 220 228 232 229 228 238 245 248 250 253 256 258 260 261 260 260 260 261 261 259
149 145 139 136 129 122 124 123 124 126 128 134 136 146 147 144 142 147 152 156 162 164 167 169 177 186 191 196 192 197 200 203 208 220 232 243 249 252 248 247 248 250 253 254 254 256 257 259 260 261 264 265 265 265
139 135 132 127 127 125 121 120 120 121 125 128 134 137 133 131 132 132 135 139 137 137 143 152 167 180 191 196 198 205 208 215 225 237 244 246 250 254 255 255 255 256 258 260 260 262 266 266 268 269 270 273 274 275
134 128 122 121 117 117 118 117 117 119 118 118 118 121 121 121 116 114 116 122 126 133 143 150 158 165 180 192 203 212 220 226 234 240 245 246 246 247 251 252 253 252 252 252 255 259 261 264 269 273 277 277 278 279
122 121 120 120 119 116 115 116 115 113 112 111 110 109 107 108 107 105 102 101 106 117 126 134 140 152 163 175 180 187 202 216 223 227 229 231 236 241 243 244 248 253 257 259 261 263 266 270 272 273 274 274 275 275
123 123 123 120 117 115 111 109 107 107 107 107 106 105 105 105 105 105 107 107 108 107 107 108 114 122 134 143 168 196 210 224 239 240 243 248 252 252 251 251 256 263 266 266 267 268 269 270 271 272 272 272 273 273
127 125 122 119 116 113 111 110 109 108 107 107 105 105 105 106 106 107 108 106 103 100 95 97 106 112 128 156 192 223 238 245 254 260 262 264 266 266 265 265 265 266 267 268 269 270 271 271 271 271 272 272 272 272
127 123 121 119 117 115 114 114 114 114 112 110 109 107 103 101 97 92 87 79 75 70 63 54 47 34 13 346 317 299 292 285 283 279 277 273 271 271 270 269 268 267 266 266 265 266 266 266 267 267 267 268 268 269
124 123 122 120 117 118 118 115 113 109 106 101 96 90 83 78 73 67 60 54 44 30 20 13 358 343 330 320 312 304 297 292 289 287 286 284 283 281 279 277 276 275 274 273 273 273 273 273 273 273 274 274 274 275
124 124 122 120 117 114 112 109 106 101 97 92 86 81 74 65 54 46 36 21 9 2 352 340 330 322 316 311 308 307 306 299 294 290 286 283 281 280 280 281 282 282 283 284 284 284 283 282 282 282 281 281 280 280
123 120 117 113 110 109 106 105 101 96 91 83 74 67 57 47 34 19 7 357 347 338 332 330 326 324 321 322 324 322 317 310 300 293 288 284 282 281 282 282 283 285 287 288 289 290 290 289 288 286 285 283 282 281
119 117 114 112 109 106 102 97 91 88 83 74 64 49 28 8 360 350 342 339 336 333 331 328 326 323 325 330 329 326 321 315 309 303 296 290 287 285 285 286 288 288 290 291 291 291 291 290 289 288 287 286 284 283
118 114 110 105 101 97 93 88 83 79 71 56 22 358 350 347 343 339 336 333 331 330 328 325 323 323 329 328 328 326 323 318 312 305 299 296 294 295 295 295 293 293 292 291 291 291 291 291 290 290 289 288 288 287
112 108 103 101 95 89 88 81 70 46 13 349 342 340 338 333 330 330 330 330 328 323 321 321 321 326 327 326 325 325 325 318 310 305 302 300 300 300 299 299 298 295 293 293 292 290 289 288 288 287 287 288 287 287
109 105 102 97 91 73 57 33 359 337 331 327 326 327 325 325 325 325 324 322 319 318 319 320 323 324 323 324 326 328 324 317 310 306 305 304 303 303 302 301 299 297 296 295 294 293 292 291 290 289 289 289 289 289
114 105 90 69 49 24 355 333 323 319 316 317 321 320 319 320 320 319 318 316 316 317 319 320 322 323 323 325 329 328 322 317 313 311 309 308 307 307 305 304 302 300 299 298 298 296 295 293 293 292 291 290 289 289
115 99 65 15 352 332 322 322 323 322 321 319 317 317 318 317 316 315 314 313 316 316 318 320 321 321 322 326 328 326 322 320 319 316 314 313 312 310 308 306 305 303 302 301 300 298 297 296 295 294 293 293 292 291
259 316 324 325 325 323 322 322 322 321 318 316 315 316 315 314 315 313 312 314 315 316 318 318 318 320 321 324 328 324 322 323 321 319 318 315 314 313 311 310 308 307 306 304 303 301 300 298 297 296 296 295 295 295
291 296 299 306 311 311 313 316 317 317 316 315 313 313 313 315 314 311 312 314 315 317 318 317 318 319 321 325 326 325 324 325 323 322 321 320 318 317 315 314 313 311 310 308 307 305 303 301 300 299 299 298 298 297
281 288 295 299 301 303 306 309 311 313 313 311 312 314 315 313 311 311 314 316 316 317 317 318 318 320 323 325 325 324 324 324 324 324 323 321 320 319 317 316 315 314 313 312 311 309 307 305 303 303 302 301 301 300
Height
10097 10098 10096 10095 10095 10095 10094 10094 10095 10095 10097 10099 10100 10101 10104 10108 10112 10115 10115 10117 10122 10123 10130 10137 10142 10143 10148 10153 10155 10160 10165 10171 10178 10183 10188 10194 10204 10214 10222 10228 10239 10249 10260 10267 10275 10283 10288 10297 10306 10312 10312 10327 10338 10345
10084 10084 10083 10084 10084 10084 10083 10084 10085 10086 10088 10090 10092 10094 10097 10099 10103 10107 10110 10114 10118 10115 10120 10131 10136 10138 10141 10146 10150 10155 10162 10167 10171 10175 10184 10191 10198 10206 10215 10224 10233 10242 10248 10256 10263 10272 10278 10286 10294 10300 10302 10312 10326 10333
10071 10071 10071 10072 10072 10072 10073 10074 10076 10077 10079 10081 10082 10085 10088 10092 10096 10099 10103 10108 10109 10107 10116 10121 10130 10138 10137 10140 10144 10152 10155 10159 10168 10174 10179 10185 10193 10202 10210 10218 10225 10235 10243 10247 10254 10263 10269 10274 10282 10285 10294 10302 10312 10318
10058 10059 10060 10061 10061 10062 10063 10063 10064 10066 10068 10070 10073 10075 10077 10081 10085 10089 10093 10098 10100 10104 10109 10114 10126 10128 10133 10135 10142 10147 10150 10155 10161 10168 10175 10182 10188 10197 10204 10211 10220 10228 10233 10238 10244 10252 10261 10265 10269 10277 10282 10288 10295 10301
10046 10048 10048 10050 10051 10050 10050 10051 10053 10055 10057 10059 10060 10062 10065 10069 10074 10077 10083 10088 10093 10097 10103 10109 10117 10123 10124 10131 10136 10143 10147 10152 10156 10163 10169 10175 10182 10190 10197 10206 10213 10220 10224 10228 10234 10240 10244 10251 10256 10263 10271 10277 10281 10286
10036 10037 10040 10039 10038 10039 10039 10040 10040 10041 10042 10044 10045 10049 10052 10057 10061 10067 10075 10079 10081 10087 10093 10100 10109 10114 10118 10125 10130 10137 10142 10149 10155 10160 10166 10170 10176 10183 10191 10199 10204 10211 10214 10219 10228 10231 10239 10242 10248 10252 10257 10263 10264 10269
10026 10029 10029 10029 10029 10029 10028 10028 10027 10027 10029 10032 10034 10039 10042 10046 10053 10059 10061 10064 10073 10079 10084 10094 10100 10106 10113 10120 10125 10131 10138 10144 10150 10156 10162 10166 10172 10178 10184 10192 10198 10203 10205 10211 10218 10222 10228 10232 10236 10242 10247 10253 10254 10256
10018 10020 10021 10021 10019 10018 10018 10017 10017 10018 10020 10022 10025 10029 10033 10038 10044 10049 10053 10060 10066 10070 10078 10087 10091 10099 10107 10114 10119 10126 10134 10140 10146 10151 10156 10161 10167 10174 10182 10184 10189 10194 10198 10204 10212 10216 10218 10224 10228 10233 10238 10241 10243 10246
10010 10013 10014 10013 10011 10010 10010 10010 10010 10011 10013 10016 10019 10022 10026 10031 10036 10041 10045 10053 10060 10067 10073 10081 10085 10094 10100 10109 10116 10122 10128 10134 10138 10144 10149 10155 10162 10168 10171 10176 10182 10187 10192 10198 10204 10208 10211 10214 10219 10221 10226 10229 10231 10235
10004 10006 10006 10005 10005 10005 10005 10005 10006 10007 10009 10011 10015 10018 10022 10026 10031 10036 10042 10050 10056 10061 10069 10076 10081 10088 10095 10104 10111 10117 10123 10129 10134 10139 10144 10150 10157 10161 10164 10169 10174 10178 10183 10188 10194 10198 10202 10205 10209 10210 10213 10217 10218 10220
9999 10000 10001 10001 10001 10002 10002 10002 10004 10005 10007 10010 10012 10017 10020 10025 10030 10036 10042 10047 10052 10058 10064 10072 10080 10088 10095 10101 10107 10113 10119 10124 10128 10134 10140 10147 10151 10154 10157 10162 10166 10172 10177 10181 10185 10188 10192 10194 10197 10200 10201 10205 10206 10207
9994 9996 9997 9999 10000 10000 10001 10001 10003 10005 10008 10011 10013 10015 10019 10023 10027 10032 10037 10044 10050 10056 10061 10069 10077 10085 10092 10099 10106 10111 10116 10121 10127 10132 10138 10142 10142 10147 10151 10156 10159 10166 10168 10171 10175 10177 10180 10182 10185 10187 10189 10192 10194 10195
9991 9993 9995 9997 9999 10000 10002 10003 10004 10006 10009 10012 10015 10018 10020 10025 10029 10033 10039 10044 10050 10056 10061 10069 10075 10082 10090 10098 10104 10110 10115 10121 10124 10129 10131 10131 10133 10141 10147 10150 10155 10159 10161 10163 10166 10169 10171 10172 10173 10175 10176 10178 10180 10181
9990 9993 9995 9998 10000 10002 10003 10005 10007 10009 10012 10015 10018 10022 10025 10029 10033 10038 10043 10047 10052 10057 10062 10068 10074 10080 10088 10095 10100 10107 10113 10117 10122 10124 10124 10127 10134 10138 10142 10144 10147 10149 10152 10153 10155 10156 10158 10159 10160 10161 10162 10162 10162 10163
9992 9995 9997 9999 10002 10004 10006 10009 10011 10013 10016 10019 10023 10026 10029 10033 10037 10042 10046 10049 10054 10058 10063 10069 10074 10080 10088 10094 10102 10107 10111 10116 10118 10116 10121 10126 10129 10133 10136 10137 10139 10141 10142 10143 10144 10144 10145 10145 10146 10147 10148 10149 10149 10149
9994 9997 10000 10003 10005 10007 10010 10013 10016 10019 10022 10025 10027 10030 10034 10037 10040 10044 10048 10051 10055 10060 10065 10071 10076 10082 10088 10093 10098 10102 10106 10109 10112 10116 10121 10123 10123 10125 10126 10127 10128 10129 10131 10131 10132 10132 10132 10132 10133 10134 10134 10134 10134 10134
9998 10001 10004 10007 10010 10012 10015 10018 10022 10025 10028 10031 10034 10037 10039 10043 10045 10049 10053 10056 10060 10064 10067 10071 10076 10081 10086 10091 10096 10101 10104 10108 10110 10112 10115 10117 10118 10119 10119 10120 10119 10120 10120 10121 10121 10120 10120 10120 10119 10119 10119 10119 10119 10117
10002 10006 10010 10013 10016 10019 10022 10026 10029 10032 10035 10038 10040 10043 10046 10049 10052 10055 10059 10062 10066 10069 10073 10076 10080 10084 10088 10092 10096 10099 10101 10103 10105 10106 10107 10106 10106 10106 10106 10106 10107 10107 10108 10108 10108 10108 10108 10108 10107 10106 10106 10105 10103 10102
10009 10013 10017 10020 10023 10028 10031 10034 10039 10041 10045 10047 10049 10052 10055 10058 10061 10064 10067 10069 10071 10073 10076 10078 10081 10083 10086 10088 10091 10093 10095 10096 10098 10099 10099 10099 10099 10099 10099 10099 10098 10097 10097 10096 10095 10094 10092 10091 10090 10089 10088 10087 10086 10085
10016 10021 10025 10029 10033 10037 10040 10044 10048 10051 10054 10057 10060 10062 10065 10067 10070 10072 10074 10076 10078 10080 10081 10084 10085 10087 10088 10089 10091 10092 10092 10093 10093 10093 10092 10092 10091 10090 10089 10088 10086 10085 10083 10082 10080 10079 10078 10076 10075 10074 10073 10071 10070 10069
10025 10029 10033 10037 10042 10046 10050 10054 10057 10061 10063 10066 10069 10072 10074 10076 10078 10079 10081 10082 10084 10085 10087 10088 10089 10090 10090 10091 10092 10091 10091 10090 10089 10088 10086 10085 10083 10081 10079 10077 10075 10073 10071 10069 10067 10065 10063 10061 10060 10058 10057 10056 10054 10052
10035 10039 10043 10047 10050 10056 10060 10063 10066 10069 10071 10074 10076 10078 10079 10081 10083 10085 10085 10087 10088 10089 10089 10089 10089 10089 10088 10088 10087 10086 10085 10083 10081 10079 10076 10073 10070 10067 10064 10061 10058 10055 10053 10052 10050 10048 10046 10044 10043 10041 10039 10038 10035 10033
10044 10048 10052 10056 10059 10064 10067 10071 10073 10076 10078 10080 10082 10085 10086 10087 10088 10088 10089 10089 10089 10089 10088 10088 10087 10086 10084 10082 10079 10077 10075 10072 10069 10066 10062 10057 10053 10049 10046 10042 10039 10036 10033 10031 10029 10027 10026 10024 10023 10021 10019 10018 10016 10015
10053 10058 10061 10065 10068 10071 10075 10078 10080 10082 10083 10086 10088 10089 10090 10091 10091 10092 10091 10090 10090 10089 10087 10085 10082 10079 10075 10072 10068 10065 10061 10058 10054 10050 10046 10042 10038 10033 10030 10026 10023 10020 10017 10014 10012 10011 10009 10007 10005 10003 10001 10000 9999 9997
10062 10065 10069 10072 10075 10077 10080 10083 10085 10086 10088 10090 10091 10092 10092 10092 10091 10091 10090 10089 10086 10083 10081 10077 10073 10068 10063 10058 10054 10049 10045 10041 10038 10034 10030 10025 10021 10018 10014 10011 10009 10004 10002 10000 9997 9995 9993 9991 9989 9987 9985 9984 9982 9981
10069 10072 10075 10078 10080 10083 10085 10087 10089 10090 10091 10091 10092 10092 10091 10091 10090 10088 10086 10084 10081 10077 10073 10068 10063 10057 10050 10045 10041 10037 10032 10028 10024 10019 10015 10010 10006 10003 10000 9998 9995 9991 9989 9986 9984 9981 9979 9977 9975 9973 9970 9968 9967 9965
10074 10077 10079 10082 10085 10087 10088 10089 10091 10091 10091 10091 10091 10091 10090 10088 10086 10084 10081 10077 10073 10069 10064 10058 10052 10046 10041 10035 10030 10025 10021 10016 10011 10007 10003 9999 9995 9991 9987 9984 9982 9980 9976 9974 9971 9969 9967 9964 9962 9960 9958 9956 9954 9952
10079 10082 10084 10086 10087 10089 10090 10090 10091 10091 10091 10091 10090 10089 10087 10084 10082 10079 10075 10071 10066 10061 10054 10048 10041 10035 10029 10023 10019 10015 10011 10006 10001 9996 9992 9988 9985 9980 9977 9974 9971 9968 9965 9962 9960 9957 9955 9953 9950 9947 9945 9943 9941 9939
10082 10084 10085 10087 10088 10089 10089 10090 10091 10090 10090 10089 10087 10085 10082 10079 10076 10072 10068 10062 10057 10051 10044 10038 10031 10024 10018 10013 10009 10005 10000 9996 9991 9986 9983 9980 9975 9971 9968 9964 9961 9958 9955 9952 9950 9947 9944 9941 9938 9936 9933 9931 9929 9926
10083 10084 10086 10086 10087 10088 10088 10088 10088 10087 10086 10084 10082 10079 10076 10072 10069 10065 10059 10053 10048 10041 10034 10028 10021 10014 10008 10004 10000 9995 9991 9986 9981 9977 9973 9969 9966 9963 9959 9955 9952 9948 9946 9942 9939 9936 9933 9930 9927 9924 9921 9919 9916 9914
10083 10084 10085 10085 10085 10085 10085 10085 10084 10083 10081 10078 10075 10072 10069 10065 10060 10055 10049 10043 10038 10031 10025 10018 10012 10006 10000 9995 9991 9987 9981 9977 9973 9969 9965 9961 9957 9953 9950 9946 9943 9939 9936 9933 9929 9926 9922 9919 9915 9912 9910 9907 9905 9903
10082 10082 10082 10082 10081 10081 10080 10080 10078 10076 10074 10071 10067 10064 10060 10056 10051 10045 10039 10034 10028 10021 10015 10009 10003 9997 9992 9987 9982 9977 9972 9968 9964 9961 9957 9952 9948 9944 9941 9937 9933 9930 9926 9923 9919 9915 9912 9908 9905 9902 9899 9897 9895 9892
10078 10079 10079 10078 10077 10075 10074 10073 10071 10068 10065 10062 10058 10055 10051 10046 10040 10034 10029 10024 10018 10012 10007 10000 9994 9988 9984 9980 9974 9969 9965 9961 9957 9952 9948 9944 9940 9936 9932 9928 9924 9920 9917 9913 9909 9905 9902 9899 9896 9893 9891 9889 9886 9884